Regional Weather Roundup
Issued by NWS Green Bay, WI

Home | Current Version | Previous Version | Graphics & Text | Print | Product List | Glossary Off
Versions: 1 2 3 4 5 6 7 8 9 10 11 12 13 14 15 16 17 18 19 20 21 22 23 24 25 26 27 28 29 30 31 32 33 34 35 36 37 38 39 40 41 42 43 44 45 46 47 48 49 50

772
ASUS43 KGRB 211700
RWRGRB

NORTH-CENTRAL AND NORTHEAST WISCONSIN REGIONAL WEATHER ROUNDUP
NATIONAL WEATHER SERVICE GREEN BAY WI
1200 PM CDT SAT APR 21 2018

WIZ005-009-010>012-018-019-211800-
NORTH CENTRAL WISCONSIN

CITY           SKY/WX    TMP DP  RH WIND       PRES   REMARKS
IRONWOOD       FAIR      53  16  23 SW5       30.39F
MANITOWISH WTR NOT AVBL
ARBOR VITAE    NOT AVBL
EAGLE RIVER    FAIR      53  11  18 CALM      30.38F
LAND O LAKES   FAIR      54  13  19 CALM      30.39F
RHINELANDER    FAIR      53  16  23 VRB6      30.39F
PHILLIPS       FAIR      51  18  26 CALM      30.39F
ANTIGO         NOT AVBL
TOMAHAWK       NOT AVBL
MERRILL          N/A     53  18  25 SW6       30.41F
$$

WIZ013-073-211800-
NORTHEAST WISCONSIN

CITY           SKY/WX    TMP DP  RH WIND       PRES   REMARKS
IRON MOUNTAIN  FAIR      57  17  21 VRB5      30.37F
MARINETTE      FAIR      56  17  21 VRB5      30.41F
$$

WIZ017-030-035>037-045-211800-
CENTRAL WISCONSIN

CITY           SKY/WX    TMP DP  RH WIND       PRES   REMARKS
MEDFORD        NOT AVBL
WAUSAU         FAIR      52  15  23 CALM      30.39F
MOSINEE        MOSUNNY   54  19  26 S3        30.43S
MARSHFIELD     FAIR      52  18  26 CALM      30.40F
WISC RAPIDS    FAIR      52  23  32 W9        30.43F
STEVENS POINT  NOT AVBL
WAUPACA        FAIR      56  18  22 S3        30.43F
SHAWANO        FAIR      56  14  18 CALM      30.42F
CLINTONVILLE   FAIR      53  19  27 SW6       30.43S
WAUTOMA        NOT AVBL
$$

WIZ038-039-048-051-211800-
FOX VALLEY

CITY           SKY/WX    TMP DP  RH WIND       PRES   REMARKS
NWS GREEN BAY  FAIR      48  24  39 S6        30.43F
APPLETON       PTSUNNY   50  12  22 SW8       30.43F
OSHKOSH        FAIR      48  23  37 S7        30.44F
FOND DU LAC    FAIR      49  10  20 SW8       30.45S
$$

WIZ022-050-052-211800-
EAST CENTRAL WISCONSIN

CITY           SKY/WX    TMP DP  RH WIND       PRES   REMARKS
EPHRAIM        NOT AVBL
WASHINGTON ISL NOT AVBL
STURGEON BAY   FAIR      53  17  24 S7        30.43F
MANITOWOC      FAIR      48  25  40 CALM      30.44F
SHEBOYGAN      FAIR      53  26  35 S7        30.44F
$$

LMZ563-521-522-541>543-211800-
LAKESHORE

STATION/POSITION TIME  TEMP    WIND        PRES    VSBY  WAVE
                       AIR SEA DIR/SP/G                  HT/PER
                 (UTC) (F)     (DEG/KT/KT) (MB)    (MI)  (FT/S)
SHEBOYGAN LKSHOR 1600   41     160/  7/  7 1031.8F
KEWAUNEE LKSHORE 1630   41     170/  7/  8 1029.8F
NORTHPORT PIER   1640   38                 1030.1S
SISTER BAY LKSHO 1612   49      10/  4/  4   N/A
MENOMINEE LKSHOR 1630   49     170/  6/  8 1029.4F
$$




USA.gov is the U.S. government's official web portal to all federal, state and local government web resources and services.